Location: Chełm
(51.1339°N, 23.4725°E)
Time: 22:05:07
(UTC+01:00)

ISS - Pass Details

Date: 31 January 2019
Orbit: 403 x 411 km, 51.6° (Epoch: 16 February)

Event Time Altitude Azimuth Distance (km) Brightness Sun altitude
Rises 18:12:01 0° 273° (W) 2,337 1.7 -18.4°
Reaches altitude 10° 18:14:06 10° 275° (W) 1,477 0.2 -18.8°
Maximum altitude 18:17:25 80° 2° (N) 422 -3.9 -19.3°
Enters shadow 18:17:33 77° 42° (NE) 426 -3.9 -19.3°
